�N����,����,����,����,����,�C��,���x,�~����,�S�V����,�ő�u�ԕ���,,,,,
,,,,,,,,,����,����,����,�N��,,
yyyy/mm/dd,hh:mm:ss,(16),16����,m/s,��,%,mm,KW/�u,(16),16����,m/s,Time,,
2022/3/1,1:00:00,13,���k��,1.7,-10.5,89,0,0,12,��,2.5,29,,
2022/3/1,2:00:00,13,���k��,3,-10.4,88.3,0,0,12,��,3.8,52,,
2022/3/1,3:00:00,12,��,2.5,-12.2,91.7,0,0,13,���k��,3.7,0,,
2022/3/1,4:00:00,11,���쐼,2.6,-13.8,90.1,0,0,10,�쐼,3.5,49,,
2022/3/1,5:00:00,11,���쐼,1.2,-13.1,91.3,0,0,12,��,3.6,10,,
2022/3/1,6:00:00,13,���k��,2.2,-13.4,90.5,0,0.01,13,���k��,3,57,,
2022/3/1,7:00:00,13,���k��,1.9,-11.7,90.5,0,0.06,12,��,3.3,7,,
2022/3/1,8:00:00,13,���k��,0.5,-5.8,84.4,0,0.27,13,���k��,3.1,7,,
2022/3/1,9:00:00,10,�쐼,2.7,2.1,58.1,0,0.45,9,��쐼,4.9,51,,
2022/3/1,10:00:00,8,��,2.5,3,53.3,0,0.59,8,��,7.2,27,,
2022/3/1,11:00:00,8,��,2.8,2.9,59.1,0,0.6,8,��,8,32,,
2022/3/1,12:00:00,11,���쐼,4.2,3.4,51.1,0,0.56,10,�쐼,7.1,46,,
2022/3/1,13:00:00,10,�쐼,3.2,3.3,54.6,0,0.5,10,�쐼,8,31,,
2022/3/1,14:00:00,10,�쐼,2.9,3,61.8,0,0.43,11,���쐼,7.5,8,,
2022/3/1,15:00:00,9,��쐼,2.5,2.7,66.4,0,0.31,10,�쐼,6.7,0,,
2022/3/1,16:00:00,9,��쐼,2.7,1.9,72.9,0,0.18,8,��,6.2,35,,
2022/3/1,17:00:00,9,��쐼,2.1,0.9,85.7,0,0.07,8,��,4.6,23,,
2022/3/1,18:00:00,9,��쐼,1.2,-0.8,94.1,0,0.01,10,�쐼,3.6,2,,
2022/3/1,19:00:00,16,�É�,0.2,-2.6,98.6,0,0,14,�k��,4,52,,
2022/3/1,20:00:00,14,�k��,3.4,-2.6,98.6,0,0,14,�k��,4.6,55,,
2022/3/1,21:00:00,14,�k��,2.4,-2.9,93.3,0,0,14,�k��,5.1,2,,
2022/3/1,22:00:00,14,�k��,1.6,-3.3,91.8,0,0,14,�k��,4.6,18,,
2022/3/1,23:00:00,14,�k��,2.6,-2.8,94.9,0,0,15,�k�k��,4.7,52,,
2022/3/1,0:00:00,14,�k��,1.2,-2.4,97,0,0,14,�k��,4.9,21,,
2022/3/2,1:00:00,12,��,1.4,-2.8,96.4,0,0,14,�k��,2.8,32,,
2022/3/2,2:00:00,13,���k��,2.2,-3.3,97.4,0,0,13,���k��,3.6,46,,
2022/3/2,3:00:00,14,�k��,1.5,-3,86.6,0,0,14,�k��,4,32,,
2022/3/2,4:00:00,14,�k��,1.4,-4.4,91.1,0,0,15,�k�k��,3.1,39,,
2022/3/2,5:00:00,14,�k��,1.1,-7.3,94.1,0,0,13,���k��,1.7,53,,
2022/3/2,6:00:00,13,���k��,1.1,-9.2,95.4,0,0,12,��,2.6,29,,
2022/3/2,7:00:00,12,��,1.5,-9.2,93.6,0,0.08,12,��,2.3,31,,
2022/3/2,8:00:00,12,��,0.9,-4.3,85,0,0.29,13,���k��,2.4,9,,
2022/3/2,9:00:00,7,��쓌,3.3,0.5,66.3,0,0.51,8,��,6.9,56,,
2022/3/2,10:00:00,10,�쐼,2.6,2.4,50.9,0,0.66,8,��,6.7,5,,
2022/3/2,11:00:00,11,���쐼,2.2,2.7,53.7,0,0.76,11,���쐼,5.6,23,,
2022/3/2,12:00:00,15,�k�k��,3,3.1,42.2,0,0.79,15,�k�k��,5.6,38,,
2022/3/2,13:00:00,15,�k�k��,2.1,3.1,50.5,0,0.29,15,�k�k��,4.2,49,,
2022/3/2,14:00:00,4,��,3.1,3.7,60.9,0,0.44,3,���k��,4.5,13,,
2022/3/2,15:00:00,5,���쓌,1.9,1.4,64.6,0,0.38,4,��,4.7,9,,
2022/3/2,16:00:00,3,���k��,1,2.3,71.6,0,0.19,1,�k�k��,2.6,31,,
2022/3/2,17:00:00,4,��,1.7,0.6,73.4,0,0.09,4,��,3.1,38,,
2022/3/2,18:00:00,8,��,0.3,-1.7,89.5,0,0.01,4,��,2.2,4,,
2022/3/2,19:00:00,12,��,0.4,-1.5,85.4,0,0,14,�k��,2.5,27,,
2022/3/2,20:00:00,1,�k�k��,0.5,-1.9,84.1,0,0,13,���k��,1.9,24,,
2022/3/2,21:00:00,,,,,,,,,,,,,
2022/3/2,22:00:00,16,�É�,0,-4,86.2,0,0,11,���쐼,2.9,6,,
2022/3/2,23:00:00,13,���k��,2.1,-5.9,94.4,0,0,14,�k��,2.7,58,,
2022/3/2,0:00:00,13,���k��,1,-8.2,91.6,0,0,4,��,3.7,26,,
2022/3/3,1:00:00,13,���k��,1.8,-8.7,94.9,0,0,13,���k��,2.3,54,,
2022/3/3,2:00:00,13,���k��,1.9,-8,95.1,0,0,13,���k��,3,33,,
2022/3/3,3:00:00,13,���k��,2,-9.4,92,0,0,14,�k��,3.5,23,,
2022/3/3,4:00:00,13,���k��,2.3,-9.4,95.5,0,0,13,���k��,3.1,50,,
2022/3/3,5:00:00,12,��,2.4,-10.8,94.2,0,0,12,��,3.5,23,,
2022/3/3,6:00:00,12,��,2.5,-11.6,95.5,0,0.01,12,��,2.7,59,,
2022/3/3,7:00:00,12,��,1.7,-10.6,94.5,0,0.07,13,���k��,3.3,23,,
2022/3/3,8:00:00,16,�É�,0.2,-6.9,91,0,0.19,12,��,2.5,26,,
2022/3/3,9:00:00,2,�k��,1.6,-3.2,81.9,0,0.35,2,�k��,2.3,56,,
2022/3/3,10:00:00,8,��,3.8,0.4,83.4,0,0.27,8,��,7.4,54,,
2022/3/3,11:00:00,8,��,5.6,0.4,81.8,0,0.26,9,��쐼,11.3,30,,
2022/3/3,12:00:00,8,��,2.9,-0.5,93.5,0,0.2,8,��,9.6,8,,
2022/3/3,13:00:00,13,���k��,2.2,-2.1,96.3,0,0.14,8,��,5.2,2,,
2022/3/3,14:00:00,14,�k��,2.8,-2.2,95,0,0.19,15,�k�k��,4.8,43,,
2022/3/3,15:00:00,14,�k��,4.8,-2.9,94.1,0.5,0.16,14,�k��,7.6,38,,
2022/3/3,16:00:00,14,�k��,4.9,-2.2,89.4,0,0.12,13,���k��,7.2,48,,
2022/3/3,17:00:00,14,�k��,4,-2.7,86.6,0,0.08,14,�k��,6.5,38,,
2022/3/3,18:00:00,14,�k��,3.3,-3.6,87.3,0,0.01,15,�k�k��,5.6,3,,
2022/3/3,19:00:00,15,�k�k��,2.3,-3.4,83.6,0,0,14,�k��,5.9,4,,
2022/3/3,20:00:00,13,���k��,1.5,-9.4,95,0.5,0,13,���k��,3.7,11,,
2022/3/3,21:00:00,15,�k�k��,2.6,-3.3,89.9,0,0,16,�k,5.2,57,,
2022/3/3,22:00:00,15,�k�k��,3.3,-2.4,67,0,0,16,�k,7.4,54,,
2022/3/3,23:00:00,14,�k��,3.6,-2.4,66.1,0,0,16,�k,8,8,,
2022/3/3,0:00:00,15,�k�k��,2.1,-4.1,68.6,0,0,15,�k�k��,6.9,3,,
2022/3/4,1:00:00,12,��,2.3,-9.1,89.6,0,0,14,�k��,4.6,8,,
2022/3/4,2:00:00,13,���k��,2.7,-14.1,87,0,0,13,���k��,3.2,56,,
2022/3/4,3:00:00,13,���k��,2.4,-13.4,92.1,0,0,13,���k��,3.6,4,,
2022/3/4,4:00:00,13,���k��,1.5,-14.3,92.6,0,0,13,���k��,3.6,2,,
2022/3/4,5:00:00,12,��,2.5,-15.3,89.3,0,0,12,��,4.1,19,,
2022/3/4,6:00:00,12,��,2.8,-14.9,92,0,0.01,12,��,3.8,26,,
2022/3/4,7:00:00,13,���k��,2.9,-12.3,94.8,0,0.1,13,���k��,4,9,,
2022/3/4,8:00:00,13,���k��,2.2,-9.1,84,0,0.32,14,�k��,4,4,,
2022/3/4,9:00:00,12,��,2,-3.5,68.1,0,0.53,14,�k��,4.5,27,,
2022/3/4,10:00:00,5,���쓌,1.3,1.2,67.6,0,0.68,12,��,7.3,19,,
2022/3/4,11:00:00,5,���쓌,3.1,0.7,60.2,0,0.78,6,�쓌,4.4,51,,
2022/3/4,12:00:00,4,��,2,4,59.7,0.5,0.82,5,���쓌,3.3,4,,
2022/3/4,13:00:00,5,���쓌,1.4,3.6,45.5,0,0.8,6,�쓌,3,15,,
2022/3/4,14:00:00,4,��,3.1,2.8,57.6,0,0.71,4,��,3.9,27,,
2022/3/4,15:00:00,5,���쓌,2,2.7,48.8,0,0.57,5,���쓌,3.7,35,,
2022/3/4,16:00:00,5,���쓌,1.7,-0.3,58.4,0,0.34,5,���쓌,3.4,19,,
2022/3/4,17:00:00,3,���k��,0.3,0.8,57.8,0,0.15,3,���k��,7.6,30,,
2022/3/4,18:00:00,1,�k�k��,1.3,-3.9,76.5,0,0.01,3,���k��,8.4,34,,
2022/3/4,19:00:00,13,���k��,0.6,-5.5,85.5,0,0,11,���쐼,1.5,50,,
2022/3/4,20:00:00,14,�k��,0.7,-7.8,84,0,0,14,�k��,1.8,12,,
2022/3/4,21:00:00,12,��,1.5,-7.7,82.4,0,0,13,���k��,2.1,36,,
2022/3/4,22:00:00,13,���k��,2.1,-8.7,88.1,0,0,13,���k��,3.1,44,,
2022/3/4,23:00:00,12,��,2.2,-11.1,89.8,0,0,13,���k��,3.4,22,,
2022/3/4,0:00:00,12,��,2.7,-9.7,87.5,0,0,13,���k��,3.2,59,,
2022/3/5,1:00:00,14,�k��,1.7,-11.6,88.5,0,0,13,���k��,3.3,2,,
2022/3/5,2:00:00,13,���k��,2.2,-10.7,89.9,0,0,13,���k��,4.1,28,,
2022/3/5,3:00:00,14,�k��,0.8,-11.1,92.1,0,0,13,���k��,2.7,20,,
2022/3/5,4:00:00,12,��,1.8,-11.5,93.7,0,0,14,�k��,3.3,21,,
2022/3/5,5:00:00,13,���k��,2.3,-10.6,88.4,0,0,14,�k��,4,37,,
2022/3/5,6:00:00,13,���k��,2.5,-10.8,93.5,0,0.01,13,���k��,3.3,59,,
2022/3/5,7:00:00,14,�k��,2.5,-10.4,89.6,0,0.09,13,���k��,3.8,47,,
2022/3/5,8:00:00,12,��,1.6,-7.7,87,0,0.22,13,���k��,2.6,19,,
2022/3/5,9:00:00,14,�k��,1.3,-3.2,78,0,0.29,14,�k��,2.6,25,,
2022/3/5,10:00:00,2,�k��,2.5,-0.6,76.9,0,0.58,2,�k��,3.5,59,,
2022/3/5,11:00:00,4,��,2.3,1.5,79.3,0,0.69,2,�k��,3.8,14,,
2022/3/5,12:00:00,4,��,4.3,0.5,81,0,0.63,4,��,6.3,49,,
2022/3/5,13:00:00,4,��,3,1.1,82.8,0,0.65,3,���k��,5.7,7,,
2022/3/5,14:00:00,3,���k��,2.8,0.3,90.4,0,0.18,2,�k��,4.1,36,,
2022/3/5,15:00:00,2,�k��,2.7,0.5,92.5,0,0.07,3,���k��,4,14,,
2022/3/5,16:00:00,1,�k�k��,1.5,0.3,96.1,0,0.03,3,���k��,4,4,,
2022/3/5,17:00:00,16,�k,1.8,-0.1,99.5,0.5,0.01,14,�k��,3.4,17,,
2022/3/5,18:00:00,1,�k�k��,1.5,0.3,100,0,0,1,�k�k��,3.2,13,,
2022/3/5,19:00:00,13,���k��,4.2,-1.2,100,0,0,14,�k��,6.5,46,,
2022/3/5,20:00:00,13,���k��,2,-1.5,100,1,0,14,�k��,6.1,17,,
2022/3/5,21:00:00,13,���k��,0.5,-3,97.7,1,0,13,���k��,3.5,34,,
2022/3/5,22:00:00,16,�É�,0.1,-7.3,95,0.5,0,11,���쐼,17.6,49,,
2022/3/5,23:00:00,12,��,1.9,-8.5,96.3,0.5,0,13,���k��,3.1,23,,
2022/3/5,0:00:00,12,��,2.5,-9.2,96.5,0,0,12,��,3.6,15,,
2022/3/6,1:00:00,1,�k�k��,2,-9.5,93.9,0,0,13,���k��,4.6,15,,
2022/3/6,2:00:00,2,�k��,0.6,-8.5,99.1,0,0,1,�k�k��,2.5,6,,
2022/3/6,3:00:00,12,��,0.9,-7.1,97.7,0,0,10,�쐼,6.8,32,,
2022/3/6,4:00:00,11,���쐼,1.7,-10.9,94.2,0,0,15,�k�k��,3.4,8,,
2022/3/6,5:00:00,10,�쐼,1.4,-12.3,93,0,0,9,��쐼,3.5,47,,
2022/3/6,6:00:00,11,���쐼,1.6,-11.4,95.8,0,0.01,10,�쐼,4.7,7,,
2022/3/6,7:00:00,13,���k��,1.9,-10.9,94.9,0,0.12,12,��,3.3,31,,
2022/3/6,8:00:00,13,���k��,1.9,-8.1,97.7,0,0.3,12,��,3,40,,
2022/3/6,9:00:00,3,���k��,1.2,-2.5,100,0,0.42,1,�k�k��,3,44,,
2022/3/6,10:00:00,16,�É�,0.2,1.1,70.2,0.5,0.67,12,��,2.5,42,,
2022/3/6,11:00:00,6,�쓌,0.6,3.6,65.7,1,0.79,2,�k��,2,26,,
2022/3/6,12:00:00,5,���쓌,1.2,4.8,64.3,3,0.82,6,�쓌,2.6,40,,
2022/3/6,13:00:00,5,���쓌,2,2.6,65.3,2,0.8,6,�쓌,4.4,17,,
2022/3/6,14:00:00,5,���쓌,1.8,3,63.6,1.5,0.72,6,�쓌,2.9,33,,
2022/3/6,15:00:00,16,�k,0.6,3.7,51.9,0,0.57,6,�쓌,2.6,0,,
2022/3/6,16:00:00,14,�k��,2.1,3.4,47.3,0,0.38,16,�k,3.7,48,,
2022/3/6,17:00:00,13,���k��,1.8,1.6,54.4,0,0.16,14,�k��,4.1,12,,
2022/3/6,18:00:00,14,�k��,1.6,-1,68.4,0,0.01,14,�k��,3.2,0,,
2022/3/6,19:00:00,15,�k�k��,2.4,0.4,63.1,0,0,15,�k�k��,4.9,58,,
2022/3/6,20:00:00,15,�k�k��,5.6,0.9,72,0,0,16,�k,10.5,59,,
2022/3/6,21:00:00,15,�k�k��,4.6,0.9,71,0,0,15,�k�k��,11.7,7,,
2022/3/6,22:00:00,16,�k,5.1,0.6,66.8,0,0,16,�k,11.2,36,,
2022/3/6,23:00:00,15,�k�k��,4.7,0.5,62,0,0,15,�k�k��,12.2,27,,
2022/3/6,0:00:00,15,�k�k��,4.8,-0.5,63.2,0,0,14,�k��,10.9,42,,
2022/3/7,1:00:00,16,�k,4.5,-0.2,61.6,0,0,16,�k,9.9,43,,
2022/3/7,2:00:00,16,�k,4.9,-0.7,60.4,0,0,15,�k�k��,10.2,37,,
2022/3/7,3:00:00,15,�k�k��,4.3,-1.1,62.3,0,0,16,�k,10.7,57,,
2022/3/7,4:00:00,15,�k�k��,4.6,-1.3,62.2,0,0,16,�k,11.9,31,,
2022/3/7,5:00:00,16,�k,5.8,-1.7,58.9,0,0,16,�k,9,54,,
2022/3/7,6:00:00,16,�k,3.9,-2.5,61.8,0,0.01,16,�k,10.9,10,,
2022/3/7,7:00:00,16,�k,4.1,-1.6,55.1,0,0.1,16,�k,8.3,25,,
2022/3/7,8:00:00,3,���k��,0.9,-1.4,63.7,0,0.3,16,�k,7.1,6,,
2022/3/7,9:00:00,15,�k�k��,2.9,0.8,46.3,0,0.52,15,�k�k��,5.2,33,,
2022/3/7,10:00:00,15,�k�k��,3.4,2.2,36.4,0,0.67,16,�k,7.5,13,,
2022/3/7,11:00:00,15,�k�k��,2.6,3,33.1,0,0.77,15,�k�k��,6.3,58,,
2022/3/7,12:00:00,15,�k�k��,4.4,3.2,35.2,0,0.76,16,�k,7.9,23,,
2022/3/7,13:00:00,15,�k�k��,5.6,3.3,34.8,0,0.65,16,�k,12.3,43,,
2022/3/7,14:00:00,15,�k�k��,3.5,3.5,39.4,0,0.69,15,�k�k��,8.9,6,,
2022/3/7,15:00:00,15,�k�k��,4.3,3.7,38.8,0,0.56,15,�k�k��,9.7,51,,
2022/3/7,16:00:00,15,�k�k��,4.8,3.3,41,0,0.36,13,���k��,9.4,2,,
2022/3/7,17:00:00,15,�k�k��,4.5,2.6,47.3,0,0.15,15,�k�k��,8.9,6,,
2022/3/7,18:00:00,15,�k�k��,5.1,1.6,48.6,0,0.02,16,�k,11.4,7,,
2022/3/7,19:00:00,15,�k�k��,6,0.9,52.7,0,0,16,�k,10.7,38,,
2022/3/7,20:00:00,15,�k�k��,3.8,0.3,56.4,0,0,15,�k�k��,10.1,4,,
2022/3/7,21:00:00,14,�k��,4,0.4,56,0,0,16,�k,9.5,17,,
2022/3/7,22:00:00,15,�k�k��,1.7,-1.4,61.8,0,0,14,�k��,8.1,6,,
2022/3/7,23:00:00,13,���k��,2.2,-4.5,69.7,0,0,12,��,3.5,39,,
2022/3/7,0:00:00,11,���쐼,1.6,-7.6,79.8,0,0,11,���쐼,2.8,35,,
2022/3/8,1:00:00,13,���k��,2.5,-6.8,87,0,0,14,�k��,3.6,55,,
2022/3/8,2:00:00,-7.6,#N/A,82.4,0,0,,,,,,,,
2022/3/8,3:00:00,13,���k��,2.5,-9,84.2,0,0,13,���k��,4.1,22,,
2022/3/8,4:00:00,12,��,2.6,-9.9,88,0,0,12,��,3.9,11,,
2022/3/8,5:00:00,12,��,2.2,-9.6,89.7,0,0,13,���k��,3.9,6,,
2022/3/8,6:00:00,13,���k��,1.5,-11.5,90.9,0,0.01,13,���k��,2.7,1,,
2022/3/8,7:00:00,12,��,2.6,-9.7,87.7,0,0.09,12,��,3.1,58,,
2022/3/8,8:00:00,13,���k��,0.6,-6.1,80.3,0,0.26,12,��,3.2,1,,
2022/3/8,9:00:00,16,�É�,0.2,0.3,67.7,0,0.47,1,�k�k��,2.7,37,,
2022/3/8,10:00:00,5,���쓌,1.5,2.3,67.4,0,0.55,6,�쓌,2.4,51,,
2022/3/8,11:00:00,4,��,2.5,1.5,74.2,0,0.64,5,���쓌,4.3,19,,
2022/3/8,12:00:00,5,���쓌,1.9,1.2,75.2,0,0.71,5,���쓌,4.2,35,,
2022/3/8,13:00:00,4,��,2.1,2,77.9,0,0.78,5,���쓌,4,41,,
2022/3/8,14:00:00,5,���쓌,0.9,2.4,75.7,0,0.72,5,���쓌,3.1,2,,
2022/3/8,15:00:00,5,���쓌,2.1,2.3,74.9,0,0.54,6,�쓌,4.3,7,,
2022/3/8,16:00:00,5,���쓌,1.1,2.1,71.1,0,0.38,4,��,2.9,1,,
2022/3/8,17:00:00,2,�k��,1,-0.5,83.7,0,0.08,2,�k��,1.9,43,,
2022/3/8,18:00:00,12,��,0.5,-2.8,94.8,0,0.01,1,�k�k��,3,13,,
2022/3/8,19:00:00,12,��,1.9,-4,95.5,0,0,12,��,2.3,55,,
2022/3/8,20:00:00,3,���k��,0.7,-4,87.7,0,0,12,��,2.5,11,,
2022/3/8,21:00:00,14,�k��,1.2,-5.5,91,0,0,3,���k��,1.8,2,,
2022/3/8,22:00:00,14,�k��,2,-6.6,93.3,0,0,13,���k��,2.8,53,,
2022/3/8,23:00:00,13,���k��,1,-7.3,91.7,0,0,13,���k��,7.2,46,,
2022/3/8,0:00:00,11,���쐼,2.1,-8.6,95.1,0,0,11,���쐼,2.5,58,,
2022/3/9,1:00:00,13,���k��,0.6,-9.6,93.3,0,0,11,���쐼,2.3,15,,
2022/3/9,2:00:00,12,��,1.4,-8.2,98.5,0,0,12,��,7.1,31,,
2022/3/9,3:00:00,12,��,0.8,-10.7,94.6,0,0,12,��,2.5,9,,
2022/3/9,4:00:00,11,���쐼,1.2,-11.3,95,0,0,13,���k��,3.6,30,,
2022/3/9,5:00:00,13,���k��,2.2,-11.2,95.4,0,0,14,�k��,3.6,26,,
2022/3/9,6:00:00,13,���k��,1.2,-12.5,92.6,0,0.01,13,���k��,3,1,,
2022/3/9,7:00:00,13,���k��,1.5,-9,95.7,0,0.12,14,�k��,2.8,39,,
2022/3/9,8:00:00,13,���k��,1.3,-5.2,81.3,0,0.34,14,�k��,2.2,2,,
2022/3/9,9:00:00,14,�k��,0.3,-0.1,67,0,0.55,13,���k��,1.6,1,,
2022/3/9,10:00:00,16,�É�,0.2,3.8,59.4,0,0.69,2,�k��,7.8,1,,
2022/3/9,11:00:00,6,�쓌,1.7,1.6,57.3,0,0.8,6,�쓌,3.1,31,,
2022/3/9,12:00:00,7,��쓌,2.6,1.6,56.8,0,0.84,7,��쓌,4.3,40,,
2022/3/9,13:00:00,8,��,3.5,1.4,66,0,0.81,7,��쓌,6.1,35,,
2022/3/9,14:00:00,8,��,3.8,1.1,66.4,0,0.72,8,��,6.6,18,,
2022/3/9,15:00:00,8,��,3.4,0.9,74.9,0,0.58,8,��,6,52,,
2022/3/9,16:00:00,8,��,2.9,0.7,74.5,0,0.39,7,��쓌,6.3,7,,
2022/3/9,17:00:00,8,��,2.2,0.1,83.3,0,0.16,9,��쐼,5.1,14,,
2022/3/9,18:00:00,7,��쓌,1,-1.2,89.6,0,0.01,9,��쐼,2.7,20,,
2022/3/9,19:00:00,9,��쐼,0.5,-0.9,92,0,0,7,��쓌,2.9,37,,
2022/3/9,20:00:00,13,���k��,0.4,-5,97.8,0,0,10,�쐼,7,13,,
2022/3/9,21:00:00,14,�k��,1.2,-5.3,98.3,0,0,14,�k��,2.7,45,,
2022/3/9,22:00:00,14,�k��,1.2,-5.1,98.6,0,0,14,�k��,3,15,,
2022/3/9,23:00:00,13,���k��,2.3,-6.1,98.6,0,0,14,�k��,2.9,30,,
2022/3/9,0:00:00,14,�k��,2.4,-7.1,97.9,0,0,14,�k��,3.6,44,,
2022/3/10,1:00:00,13,���k��,2.7,-7.7,97.6,0,0,14,�k��,3.9,59,,
2022/3/10,2:00:00,15,�k�k��,0.9,-8.3,95.4,0,0,14,�k��,3.7,0,,
2022/3/10,3:00:00,13,���k��,2.5,-9.2,96.5,0,0,13,���k��,3.3,59,,
2022/3/10,4:00:00,14,�k��,2.3,-8.8,96,0,0,14,�k��,4.4,10,,
2022/3/10,5:00:00,13,���k��,2.3,-9.9,95.4,0,0,14,�k��,3.5,2,,
2022/3/10,6:00:00,12,��,2.3,-8.9,96.6,0,0.01,14,�k��,3.3,14,,
2022/3/10,7:00:00,14,�k��,2.5,-8.6,92.6,0,0.13,14,�k��,3.5,42,,
2022/3/10,8:00:00,12,��,0.8,-4.1,75.7,0,0.35,13,���k��,2.9,27,,
2022/3/10,9:00:00,12,��,0.8,-0.1,62.8,0,0.56,12,��,1.7,13,,
2022/3/10,10:00:00,4,��,1.5,3.8,72,0,0.7,4,��,2.3,59,,
2022/3/10,11:00:00,6,�쓌,1.8,2.4,62.4,0,0.79,6,�쓌,2.9,44,,
2022/3/10,12:00:00,7,��쓌,2,2.3,66.4,0,0.84,7,��쓌,3.6,13,,
2022/3/10,13:00:00,7,��쓌,2.2,2.4,67.6,0,0.81,8,��,3.7,26,,
2022/3/10,14:00:00,7,��쓌,2.2,2.6,66.5,0,0.72,8,��,3.4,8,,
2022/3/10,15:00:00,5,���쓌,1.6,2.9,74,0,0.59,6,�쓌,3,31,,
2022/3/10,16:00:00,5,���쓌,1.1,2.2,82.1,0,0.4,6,�쓌,2.1,6,,
2022/3/10,17:00:00,3,���k��,0.8,0.2,84.6,0,0.17,2,�k��,1.9,27,,
2022/3/10,18:00:00,16,�É�,0,-1.7,95.7,0,0.02,2,�k��,2.2,21,,
2022/3/10,19:00:00,15,�k�k��,0.4,-2.6,98.5,0,0,15,�k�k��,2.5,22,,
2022/3/10,20:00:00,13,���k��,1.9,-3.5,97.6,0,0,13,���k��,2.5,56,,
2022/3/10,21:00:00,-4,#N/A,85.6,0,0,,,,,,,,
2022/3/10,22:00:00,13,���k��,1.2,-5.4,90.5,0,0,13,���k��,2.9,1,,
2022/3/10,23:00:00,13,���k��,0.7,-7.6,94.9,0,0,12,��,2.5,27,,
2022/3/10,0:00:00,13,���k��,1.5,-8.3,94,0,0,13,���k��,2.5,49,,
2022/3/11,1:00:00,12,��,1.3,-8.6,94.9,0,0,13,���k��,2.7,59,,
2022/3/11,2:00:00,12,��,2.3,-8.9,96.1,0,0,13,���k��,2.9,57,,
2022/3/11,3:00:00,13,���k��,1.8,-8.4,93.2,0,0,13,���k��,2.8,52,,
2022/3/11,4:00:00,13,���k��,2.3,-6.8,92.1,0,0,13,���k��,3.4,43,,
2022/3/11,5:00:00,13,���k��,1.9,-5.7,91.2,0,0,13,���k��,3.8,37,,
2022/3/11,6:00:00,13,���k��,0.8,-5.6,92.1,0,0.01,14,�k��,3,47,,
2022/3/11,7:00:00,12,��,1.5,-4.7,89.1,0,0.06,13,���k��,2.2,49,,
2022/3/11,8:00:00,12,��,1.1,-3.8,88.2,0,0.11,13,���k��,3.5,27,,
2022/3/11,9:00:00,2,�k��,0.9,-1.8,82.8,0,0.19,11,���쐼,3.3,4,,
2022/3/11,10:00:00,6,�쓌,1.4,0.7,81.7,0,0.32,7,��쓌,2.7,59,,
2022/3/11,11:00:00,2,�k��,2,1,83.4,0,0.36,7,��쓌,4.5,8,,
2022/3/11,12:00:00,6,�쓌,2.1,3.1,70.1,0,0.4,5,���쓌,3.7,58,,
2022/3/11,13:00:00,7,��쓌,1.6,4.4,64.2,0,0.46,5,���쓌,4.4,18,,
2022/3/11,14:00:00,8,��,3,4.8,59.6,0,0.52,8,��,7,43,,
2022/3/11,15:00:00,7,��쓌,2.7,4.1,66.9,0,0.39,8,��,8.4,15,,
2022/3/11,16:00:00,8,��,2.7,5.2,61.2,0,0.25,8,��,7.9,19,,
2022/3/11,17:00:00,8,��,3.1,3.8,65.7,0,0.14,8,��,7,36,,
2022/3/11,18:00:00,9,��쐼,3.9,3.2,71.8,0,0.01,9,��쐼,9.3,29,,
2022/3/11,19:00:00,8,��,3.2,3.2,73.2,0,0,9,��쐼,8.6,21,,
2022/3/11,20:00:00,8,��,1.8,2.6,78.6,0,0,8,��,5.3,45,,
2022/3/11,21:00:00,9,��쐼,3.4,4.1,76.9,0,0,14,�k��,16.6,29,,
2022/3/11,22:00:00,10,�쐼,2.9,5.3,75.9,0,0,8,��,7.2,17,,
2022/3/11,23:00:00,8,��,3.5,3,82.1,0,0,10,�쐼,6.2,5,,
2022/3/11,0:00:00,9,��쐼,3.1,3,86.3,0,0,10,�쐼,5.7,48,,
2022/3/12,1:00:00,9,��쐼,2.2,3.6,87.8,0,0,9,��쐼,4.8,5,,
2022/3/12,2:00:00,9,��쐼,1.7,3.6,90.4,0,0,9,��쐼,5,22,,
2022/3/12,3:00:00,12,��,1,3,92,0,0,11,���쐼,2.7,56,,
2022/3/12,4:00:00,12,��,1.3,0.4,94.8,0,0,8,��,3.8,23,,
2022/3/12,5:00:00,13,���k��,2.4,0.3,98.9,0,0,14,�k��,5.3,32,,
2022/3/12,6:00:00,14,�k��,3.9,1.9,89.7,0.5,0,14,�k��,7.6,27,,
2022/3/12,7:00:00,14,�k��,2.1,1.2,95.2,0,0.05,15,�k�k��,5.3,4,,
2022/3/12,8:00:00,13,���k��,1.8,2.4,90.5,0.5,0.26,13,���k��,3.7,7,,
2022/3/12,9:00:00,13,���k��,2.6,5.7,61.6,0,0.47,14,�k��,5.4,44,,
2022/3/12,10:00:00,14,�k��,3.2,6.3,45.4,0,0.69,14,�k��,6.7,21,,
2022/3/12,11:00:00,15,�k�k��,3.8,6.1,46.7,0,0.71,15,�k�k��,7,58,,
2022/3/12,12:00:00,14,�k��,5.2,5.9,42.8,0,0.62,15,�k�k��,11,28,,
2022/3/12,13:00:00,15,�k�k��,5.7,5.7,42.4,0,0.76,15,�k�k��,12.8,40,,
2022/3/12,14:00:00,14,�k��,4.4,5.9,43.4,0,0.71,15,�k�k��,10.6,18,,
2022/3/12,15:00:00,14,�k��,5.2,5.7,47.3,0,0.59,13,���k��,10.3,2,,
2022/3/12,16:00:00,14,�k��,6.1,5,54.8,0,0.41,14,�k��,12.3,54,,
2022/3/12,17:00:00,15,�k�k��,4.7,4,64.2,0,0.18,13,���k��,12.6,24,,
2022/3/12,18:00:00,16,�k,3.7,3.2,65.9,0,0.02,9,��쐼,8,1,,
2022/3/12,19:00:00,15,�k�k��,2.7,3.2,65.4,0,0,14,�k��,8.2,47,,
2022/3/12,20:00:00,14,�k��,4.5,3.3,62,0,0,14,�k��,8.5,57,,
2022/3/12,21:00:00,14,�k��,3.1,2.7,64.7,0,0,13,���k��,8.2,1,,
2022/3/12,22:00:00,14,�k��,4.2,2.5,65.4,0,0,15,�k�k��,8.1,52,,
2022/3/12,23:00:00,16,�k,2.5,2.2,63.7,0,0,15,�k�k��,9.4,9,,
2022/3/12,0:00:00,15,�k�k��,3.6,2.5,63,0,0,15,�k�k��,8,34,,
2022/3/13,1:00:00,14,�k��,2.7,1.8,61.1,0,0,15,�k�k��,7.7,9,,
2022/3/13,2:00:00,14,�k��,2.9,0.8,65.3,0,0,14,�k��,6.6,9,,
2022/3/13,3:00:00,14,�k��,2.1,-1.2,73.8,0,0,14,�k��,3.8,5,,
2022/3/13,4:00:00,13,���k��,1,-1.5,79.7,0,0,13,���k��,4.7,14,,
2022/3/13,5:00:00,11,���쐼,0.9,-1.3,76.7,0,0,8,��,2.5,33,,
2022/3/13,6:00:00,14,�k��,1.6,-0.9,74.3,0,0.01,10,�쐼,2.4,5,,
2022/3/13,7:00:00,13,���k��,0.4,-0.5,72.3,0,0.08,14,�k��,2.6,23,,
2022/3/13,8:00:00,14,�k��,1.1,1.1,70.7,0,0.19,14,�k��,2.1,59,,
2022/3/13,9:00:00,2.8,�k��,60.1,0,0.42,,,,,,,,
2022/3/13,10:00:00,5,���쓌,2.4,3.1,61.4,0,0.49,3,���k��,3.6,3,,
2022/3/13,11:00:00,5,���쓌,2.9,3.1,54.5,0,0.79,6,�쓌,4.6,47,,
2022/3/13,12:00:00,6,�쓌,2.8,3.2,51.1,0,0.82,6,�쓌,4.7,22,,
2022/3/13,13:00:00,7,��쓌,3.5,2.8,54.5,0,0.8,8,��,5.2,56,,
2022/3/13,14:00:00,7,��쓌,2.7,2.3,57.7,0,0.71,7,��쓌,5.5,9,,
2022/3/13,15:00:00,7,��쓌,2.5,2.3,68.4,0,0.57,7,��쓌,4.9,2,,
2022/3/13,16:00:00,6,�쓌,2.6,1.8,75.7,0,0.23,8,��,4.7,2,,
2022/3/13,17:00:00,6,�쓌,1.8,0.9,82.7,0,0.11,6,�쓌,3.6,24,,
2022/3/13,18:00:00,6,�쓌,1.3,0.7,87.2,0,0.01,5,���쓌,2.8,4,,
2022/3/13,19:00:00,3,���k��,0.5,0.6,89.3,0,0,4,��,3.1,59,,
2022/3/13,20:00:00,1,�k�k��,1.6,0.6,88.4,0,0,2,�k��,2.5,53,,
2022/3/13,21:00:00,2,�k��,1.4,0.4,90.9,0,0,3,���k��,2.8,42,,
2022/3/13,22:00:00,2,�k��,2.5,0.4,95.5,0,0,3,���k��,3.9,39,,
2022/3/13,23:00:00,2,�k��,1.9,0.5,96,0,0,2,�k��,2.9,8,,
2022/3/13,0:00:00,2,�k��,1.8,0.3,97.8,0,0,2,�k��,2.6,59,,
2022/3/14,1:00:00,2,�k��,1.8,0.2,99.4,0,0,3,���k��,2.9,47,,
2022/3/14,2:00:00,2,�k��,1.7,-0.2,100,0,0,2,�k��,3.2,19,,
2022/3/14,3:00:00,1,�k�k��,2,-0.2,99.9,0,0,1,�k�k��,3.7,36,,
2022/3/14,4:00:00,1,�k�k��,1.3,-0.3,99.7,0,0,1,�k�k��,2.7,1,,
2022/3/14,5:00:00,16,�k,1.3,-0.3,99.8,0,0,1,�k�k��,2.5,37,,
2022/3/14,6:00:00,1,�k�k��,1.8,-0.2,97.3,0,0.01,16,�k,3,43,,
2022/3/14,7:00:00,16,�k,0.7,-0.1,96.1,0,0.02,15,�k�k��,2.8,58,,
2022/3/14,8:00:00,1,�k�k��,2.4,0.5,91.6,0,0.1,2,�k��,3.7,58,,
2022/3/14,9:00:00,2,�k��,2.1,1.1,88,0,0.23,1,�k�k��,3.4,36,,
2022/3/14,10:00:00,4,��,2.7,1.5,88,0,0.3,4,��,4,53,,
2022/3/14,11:00:00,4,��,3,1.6,87.3,0,0.34,4,��,3.7,57,,
2022/3/14,12:00:00,3,���k��,2,2.3,86.4,0,0.38,4,��,3.8,9,,
2022/3/14,13:00:00,4,��,2.7,2.9,84.5,0,0.53,4,��,3.5,55,,
2022/3/14,14:00:00,4,��,2.5,2.6,84.4,0,0.56,4,��,3.8,35,,
2022/3/14,15:00:00,4,��,2.7,2.1,83.5,0,0.4,4,��,4.2,14,,
2022/3/14,16:00:00,4,��,2.7,1.4,85.5,0,0.23,4,��,4.9,35,,
2022/3/14,17:00:00,4,��,2.4,1,89,0,0.07,4,��,4.3,23,,
2022/3/14,18:00:00,5,���쓌,0.9,-0.1,92,0,0.01,4,��,3.4,42,,
2022/3/14,19:00:00,12,��,1.7,0.2,96.5,0,0,12,��,2.4,55,,
2022/3/14,20:00:00,7,��쓌,0.5,0.4,93.2,0,0,8,��,3.1,39,,
2022/3/14,21:00:00,8,��,0.6,0.5,90.5,0,0,5,���쓌,2.5,35,,
2022/3/14,22:00:00,5,���쓌,2.1,0.4,89.9,0,0,5,���쓌,3.4,58,,
2022/3/14,23:00:00,5,���쓌,2.5,-0.1,88.8,0,0,5,���쓌,4.3,38,,
2022/3/14,0:00:00,6,�쓌,0.7,-0.2,87.9,0,0,5,���쓌,3.2,0,,
2022/3/15,1:00:00,4,��,3.4,-0.4,88.9,0,0,4,��,4.2,58,,
2022/3/15,2:00:00,4,��,3,-0.5,88.7,0,0,4,��,4.1,52,,
2022/3/15,3:00:00,4,��,3.7,-0.6,89.6,0,0,4,��,5.8,9,,
2022/3/15,4:00:00,4,��,4.4,-0.7,86.8,0,0,4,��,6.7,52,,
2022/3/15,5:00:00,4,��,5.2,-0.8,85.8,0,0,4,��,7.8,46,,
2022/3/15,6:00:00,4,��,4.5,-0.9,86.5,0,0,4,��,7.6,33,,
2022/3/15,7:00:00,3,���k��,4.1,-0.9,87.7,0,0.02,3,���k��,7,36,,
2022/3/15,8:00:00,3,���k��,2.9,-1.6,95.3,0,0.05,3,���k��,6.1,10,,
2022/3/15,9:00:00,2,�k��,2.1,-1.6,98.5,0,0.09,2,�k��,4.2,7,,
2022/3/15,10:00:00,3,���k��,4.3,-1.2,97.4,0.5,0.14,3,���k��,6.5,51,,
2022/3/15,11:00:00,16,�k,2.1,-1.3,97.5,0,0.18,2,�k��,6.1,7,,
2022/3/15,12:00:00,14,�k��,2.2,-1,97.4,0,0.19,13,���k��,3.5,56,,
2022/3/15,13:00:00,15,�k�k��,1.8,-0.6,98.1,0,0.26,14,�k��,4.3,6,,
2022/3/15,14:00:00,2,�k��,2.8,-0.1,99.3,0,0.2,2,�k��,4.8,58,,
2022/3/15,15:00:00,2,�k��,3,-0.2,99.9,1,0.12,2,�k��,6.2,56,,
2022/3/15,16:00:00,2,�k��,4.2,-0.2,100,1.5,0.06,2,�k��,8.6,49,,
2022/3/15,17:00:00,1,�k�k��,4.4,-0.1,100,1.5,0.04,1,�k�k��,7.8,25,,
2022/3/15,18:00:00,15,�k�k��,2.8,-0.5,100,0.5,0.01,2,�k��,6.6,19,,
2022/3/15,19:00:00,14,�k��,3.7,-0.6,100,1,0,15,�k�k��,6.8,54,,
2022/3/15,20:00:00,14,�k��,4.6,-0.4,100,0.5,0,14,�k��,8.1,51,,
2022/3/15,21:00:00,14,�k��,4.6,-0.4,100,0.5,0,15,�k�k��,8.1,14,,
2022/3/15,22:00:00,14,�k��,4.2,-0.2,99.4,0.5,0,15,�k�k��,8,55,,
2022/3/15,23:00:00,15,�k�k��,3.5,-0.1,97.3,0.5,0,14,�k��,7.5,4,,
2022/3/15,0:00:00,14,�k��,3.7,-0.1,97.2,0.5,0,15,�k�k��,6.4,22,,
2022/3/16,1:00:00,14,�k��,3.1,-0.1,97.3,1,0,14,�k��,6.3,20,,
2022/3/16,2:00:00,14,�k��,2.3,-0.3,97.3,0.5,0,14,�k��,4.4,49,,
2022/3/16,3:00:00,14,�k��,2.1,-0.4,98.2,0.5,0,14,�k��,4.7,19,,
2022/3/16,4:00:00,14,�k��,1.2,-0.4,96.6,0.5,0,14,�k��,3.3,1,,
2022/3/16,5:00:00,12,��,1.4,-1.4,99.3,1,0,12,��,3.5,36,,
2022/3/16,6:00:00,14,�k��,1.8,-0.7,99.8,0.5,0.01,14,�k��,2.5,54,,
2022/3/16,7:00:00,15,�k�k��,0.8,-0.1,98,1,0.06,14,�k��,2.7,16,,
2022/3/16,8:00:00,1,�k�k��,1.3,0.8,95.5,1,0.18,1,�k�k��,2.5,10,,
2022/3/16,9:00:00,2,�k��,0.7,1.7,92,1.5,0.31,2,�k��,1.8,41,,
2022/3/16,10:00:00,1,�k�k��,0.5,2.7,88.2,1,0.51,1,�k�k��,2.9,51,,
2022/3/16,11:00:00,4,��,2.8,3,82,4.5,0.63,5,���쓌,3.8,47,,
2022/3/16,12:00:00,4,��,2.5,2.6,85.3,3,0.68,3,���k��,4.7,20,,
2022/3/16,13:00:00,4,��,2.8,1.9,85.1,0.5,0.45,5,���쓌,3.8,55,,
2022/3/16,14:00:00,4,��,2.5,2.1,87.4,0,0.43,4,��,3.9,26,,
2022/3/16,15:00:00,5,���쓌,1.9,1.7,89.3,0,0.34,4,��,3.1,14,,
2022/3/16,16:00:00,4,��,1.8,1.3,92.8,0,0.22,4,��,2.9,42,,
2022/3/16,17:00:00,5,���쓌,1,0.8,94.2,0,0.12,4,��,2.3,12,,
2022/3/16,18:00:00,8,��,0.8,0.5,95.9,0,0.02,8,��,1.4,40,,
2022/3/16,19:00:00,10,�쐼,0.6,0.2,97.7,0,0,9,��쐼,2.8,33,,
2022/3/16,20:00:00,16,�É�,0,-0.3,99.3,0,0,10,�쐼,2.2,17,,
2022/3/16,21:00:00,16,�É�,0,-0.3,100,0,0,12,��,4,42,,
2022/3/16,22:00:00,16,�É�,0,-1.1,100,0,0,15,�k�k��,8.8,32,,
2022/3/16,23:00:00,12,��,0.8,-1.8,100,0,0,14,�k��,2.4,17,,
2022/3/16,0:00:00,13,���k��,1.3,-3,100,0,0,14,�k��,1.6,0,,
2022/3/17,1:00:00,15,�k�k��,0.3,-2.6,100,0,0,15,�k�k��,2.8,44,,
2022/3/17,2:00:00,13,���k��,0.8,-3.6,100,0,0,13,���k��,2.2,1,,
2022/3/17,3:00:00,-3,#N/A,100,0,0,,,,,,,,
2022/3/17,4:00:00,13,���k��,0.9,-2.3,100,0,0,13,���k��,3.8,3,,
2022/3/17,5:00:00,13,���k��,1.2,-1.7,100,0,0,12,��,1.9,9,,